SES-19 (55971 NORAD) Tracking and Keplerian Element Data

This shows tracking and keplerian element data for the satellite.

Feedback or suggestion? Click here.




ElementValue
Catalog55971
NameSES-19
Epoch Orbit66
Epoch Day125.37030859
Epoch Year2023
RAAN279.7748
Inclination0.0098
Eccentricity3.05E-05
Argument of Perigee190.6733
Mean Anonmoly103.283
Mean Motion1.00279332
Decay Rate1.32E-06
L11 55971U 23038B 23125.37030859 .00000132 00000+0 00000+0 0 9995
L22 55971 0.0098 279.7748 0000305 190.6733 103.2830 1.00279332 663



Live tracking and technical data element details for SES-19 (NORAD 55971). SES-19 can be tracked NOW for your location showing map with azimuth and elevation plus other details from your city location.







IsCatalogInMostPopularTable: catalog: 55971, numindb: 6
Update: records affected: 1



GetName: 55971 SES-19

Hit Count: updated at: Tue, 06 Jun 2023 03:27:26 GMT